CET,Max TemperatureF,Mean TemperatureF,Min TemperatureF,Max Dew PointF,MeanDew PointF,Min DewpointF,Max Humidity, Mean Humidity, Min Humidity, Max Sea Level PressureIn, Mean Sea Level PressureIn, Min Sea Level PressureIn, Max VisibilityMiles, Mean VisibilityMiles, Min VisibilityMiles, Max Wind SpeedMPH, Mean Wind SpeedMPH, Max Gust SpeedMPH,PrecipitationIn, CloudCover, Events, WindDirDegrees
2012-11-1,71,70,68,61,59,59,78,69,64,29.86,29.76,29.65,6,6,6,15,9,,0.00,1,,22
2012-11-2,73,71,69,66,64,63,88,80,73,30.09,30.00,29.89,6,6,6,12,7,,0.00,2,,359
2012-11-3,71,68,66,63,60,57,78,72,64,30.15,30.10,30.06,,,,12,5,,0.00,,,106
2012-11-4,77,74,71,72,70,68,94,85,78,30.09,30.04,29.98,,,,16,11,,0.00,,,186
2012-11-5,78,76,73,72,68,61,89,79,54,30.06,29.98,29.95,,,,18,14,,0.00,,,249
2012-11-6,73,71,69,64,62,61,83,72,65,30.12,30.09,30.06,6,6,6,12,7,,0.00,1,,40
2012-11-7,73,70,66,68,64,57,88,81,68,30.27,30.18,30.09,6,6,6,22,10,,0.00,4,,32
2012-11-8,68,66,64,52,50,48,64,57,49,30.30,30.25,30.21,6,6,6,12,8,,0.00,2,,42
2012-11-9,71,66,62,59,56,54,73,64,53,30.15,30.12,30.09,,,,8,4,,0.00,,,195
2012-11-10,75,72,69,68,67,64,88,82,73,30.09,30.04,30.01,6,6,6,20,13,,0.00,2,,141
2012-11-11,75,74,73,68,67,66,83,78,73,29.95,29.91,29.86,6,5,4,29,26,39,0.00,1,,140
2012-11-12,75,74,71,68,66,66,83,78,73,30.06,30.01,29.95,6,5,4,31,24,,0.00,2,,128
2012-11-13,75,73,71,66,65,63,83,76,69,30.09,30.05,30.01,6,6,5,28,24,,0.00,1,,120
2012-11-14,73,72,71,66,65,63,83,77,73,30.01,29.96,29.89,6,6,4,30,27,,0.00,3,,122
2012-11-15,66,63,60,59,58,57,94,85,73,29.95,29.87,29.80,6,5,2,34,15,46,0.00,4,Rain-Thunderstorm,4
2012-11-16,69,68,66,63,60,54,83,75,64,30.01,29.96,29.89,6,6,6,21,17,,0.00,3,,5
2012-11-17,69,66,64,59,56,54,73,67,60,30.01,29.98,29.95,6,6,6,12,7,,0.00,2,,328
2012-11-18,69,64,60,61,59,57,94,82,68,29.92,29.88,29.83,6,6,1,22,14,34,0.00,6,Rain-Thunderstorm,193
2012-11-19,71,68,62,61,58,57,83,75,64,29.92,29.85,29.80,6,6,6,13,10,,0.00,2,Rain-Thunderstorm,261
2012-11-20,68,65,62,59,57,55,82,73,64,30.01,29.96,29.89,6,6,6,16,12,,0.00,3,Rain,297
2012-11-21,68,65,62,59,58,57,83,77,73,30.12,30.06,30.04,6,6,4,17,15,,0.00,5,Rain,319
2012-11-22,68,66,64,59,57,55,83,74,68,30.21,30.18,30.15,6,6,6,14,11,,0.00,3,,355
2012-11-23,68,65,62,59,57,55,82,74,64,30.24,30.22,30.18,6,6,6,7,5,,0.00,2,,358
2012-11-24,68,65,62,57,56,55,77,72,68,30.24,30.23,30.21,6,6,6,8,5,,0.00,1,,33
2012-11-25,68,66,64,59,56,54,78,71,64,30.24,30.20,30.18,6,6,6,7,4,,0.00,1,,84
2012-11-26,69,68,66,63,60,55,83,76,68,30.18,30.11,30.06,6,6,6,16,7,,0.00,1,,144
2012-11-27,71,70,69,66,64,63,88,79,73,29.98,29.87,29.74,6,6,5,30,16,,0.00,1,,165
2012-11-28,71,66,62,64,53,41,78,61,45,29.71,29.63,29.59,6,5,4,34,25,47,0.00,1,,224
2012-11-29,62,60,59,46,43,39,55,51,48,29.74,29.71,29.68,6,6,6,26,23,38,0.00,1,,247
2012-11-30,62,60,59,45,41,37,59,50,42,29.77,29.70,29.65,6,6,6,23,17,,0.00,2,,242